Time,TemperatureF,DewpointF,PressureIn,WindDirection,WindDirectionDegrees,WindSpeedMPH,WindSpeedGustMPH,Humidity,HourlyPrecipIn,Conditions,Clouds,dailyrainin,SoftwareType,DateUTC
2013-02-24 00:01:00,6.0,0.0,29.86,East,87,0.0,-999.0,74,-99.99,,,-99.99,,2013-02-24 07:01:00,
2013-02-24 00:31:00,6.0,0.0,29.86,East,87,0.0,-999.0,77,-99.99,,,-99.99,,2013-02-24 07:31:00,
2013-02-24 00:42:00,6.0,0.0,29.86,East,87,0.0,-999.0,77,-99.99,,,-99.99,,2013-02-24 07:42:00,
2013-02-24 00:52:00,7.0,1.0,29.86,East,87,0.0,-999.0,77,-99.99,,,-99.99,,2013-02-24 07:52:00,
2013-02-24 01:01:00,7.0,1.0,29.85,East,87,0.0,-999.0,76,-99.99,,,-99.99,,2013-02-24 08:01:00,
2013-02-24 01:11:00,7.0,1.0,29.85,East,87,0.0,-999.0,76,-99.99,,,-99.99,,2013-02-24 08:11:00,
2013-02-24 01:22:00,7.0,1.0,29.85,East,87,0.0,-999.0,76,-99.99,,,-99.99,,2013-02-24 08:22:00,
2013-02-24 01:31:00,7.0,1.0,29.86,East,87,0.0,-999.0,76,-99.99,,,-99.99,,2013-02-24 08:31:00,
2013-02-24 01:42:00,7.0,1.0,29.86,East,87,0.0,-999.0,76,-99.99,,,-99.99,,2013-02-24 08:42:00,
2013-02-24 01:54:00,7.0,1.0,29.85,East,87,0.0,-999.0,75,-99.99,,,-99.99,,2013-02-24 08:54:00,
2013-02-24 02:01:00,7.0,1.0,29.85,East,87,0.0,-999.0,76,-99.99,,,-99.99,,2013-02-24 09:01:00,
2013-02-24 02:11:00,7.0,1.0,29.85,East,87,0.0,-999.0,76,-99.99,,,-99.99,,2013-02-24 09:11:00,
2013-02-24 02:21:00,7.0,1.0,29.85,East,87,0.0,-999.0,76,-99.99,,,-99.99,,2013-02-24 09:21:00,
2013-02-24 02:31:00,8.0,2.0,29.83,East,87,0.0,-999.0,76,-99.99,,,-99.99,,2013-02-24 09:31:00,
2013-02-24 02:41:00,8.0,2.0,29.83,East,87,0.0,-999.0,76,-99.99,,,-99.99,,2013-02-24 09:41:00,
2013-02-24 02:52:00,9.0,4.0,29.83,East,87,0.0,-999.0,78,-99.99,,,-99.99,,2013-02-24 09:52:00,
2013-02-24 03:01:00,9.0,4.0,29.83,East,87,0.0,-999.0,80,-99.99,,,-99.99,,2013-02-24 10:01:00,
2013-02-24 03:11:00,9.0,4.0,29.83,East,87,0.0,-999.0,80,-99.99,,,-99.99,,2013-02-24 10:11:00,
2013-02-24 03:21:00,9.0,4.0,29.83,East,87,0.0,-999.0,80,-99.99,,,-99.99,,2013-02-24 10:21:00,
2013-02-24 03:31:00,10.0,6.0,29.83,East,87,0.0,-999.0,82,-99.99,,,-99.99,,2013-02-24 10:31:00,
2013-02-24 03:41:00,10.0,6.0,29.83,East,87,0.0,-999.0,82,-99.99,,,-99.99,,2013-02-24 10:41:00,
2013-02-24 03:52:00,10.0,6.0,29.82,East,87,0.0,-999.0,83,-99.99,,,-99.99,,2013-02-24 10:52:00,
2013-02-24 04:01:00,10.0,5.0,29.80,East,88,0.0,-999.0,81,-99.99,,,-99.99,,2013-02-24 11:01:00,
2013-02-24 04:11:00,10.0,5.0,29.80,East,88,0.0,-999.0,81,-99.99,,,-99.99,,2013-02-24 11:11:00,
2013-02-24 04:21:00,10.0,5.0,29.80,East,88,0.0,-999.0,81,-99.99,,,-99.99,,2013-02-24 11:21:00,
2013-02-24 04:32:00,9.0,4.0,29.80,East,88,0.0,-999.0,79,-99.99,,,-99.99,,2013-02-24 11:32:00,
2013-02-24 04:41:00,9.0,4.0,29.80,East,88,0.0,-999.0,79,-99.99,,,-99.99,,2013-02-24 11:41:00,
2013-02-24 04:53:00,8.0,3.0,29.81,East,88,0.0,-999.0,79,-99.99,,,-99.99,,2013-02-24 11:53:00,
2013-02-24 05:01:00,7.0,2.0,29.80,East,88,0.0,-999.0,79,-99.99,,,-99.99,,2013-02-24 12:01:00,
2013-02-24 05:11:00,7.0,2.0,29.80,East,88,0.0,-999.0,79,-99.99,,,-99.99,,2013-02-24 12:11:00,
2013-02-24 05:21:00,7.0,2.0,29.80,East,88,0.0,-999.0,79,-99.99,,,-99.99,,2013-02-24 12:21:00,
2013-02-24 05:32:00,6.0,1.0,29.82,East,88,0.0,-999.0,80,-99.99,,,-99.99,,2013-02-24 12:32:00,
2013-02-24 05:46:00,6.0,1.0,29.82,East,88,0.0,-999.0,80,-99.99,,,-99.99,,2013-02-24 12:46:00,
2013-02-24 05:56:00,7.0,2.0,29.83,East,88,0.0,-999.0,81,-99.99,,,-99.99,,2013-02-24 12:56:00,
2013-02-24 06:11:00,7.0,3.0,29.83,East,88,0.0,-999.0,84,-99.99,,,-99.99,,2013-02-24 13:11:00,
2013-02-24 06:16:00,7.0,3.0,29.83,East,88,0.0,-999.0,84,-99.99,,,-99.99,,2013-02-24 13:16:00,
2013-02-24 06:26:00,7.0,3.0,29.83,East,88,0.0,-999.0,84,-99.99,,,-99.99,,2013-02-24 13:26:00,
2013-02-24 06:33:00,8.0,4.0,29.83,NNW,336,0.0,-999.0,84,-99.99,,,-99.99,,2013-02-24 13:33:00,
2013-02-24 06:44:00,8.0,4.0,29.83,NNW,336,0.0,-999.0,84,-99.99,,,-99.99,,2013-02-24 13:44:00,
2013-02-24 06:55:00,9.0,5.0,29.83,NNW,342,0.0,-999.0,85,-99.99,,,-99.99,,2013-02-24 13:55:00,
2013-02-24 07:04:00,10.0,6.0,29.84,NW,315,0.0,-999.0,85,-99.99,,,-99.99,,2013-02-24 14:04:00,
2013-02-24 07:13:00,10.0,6.0,29.84,NW,315,0.0,-999.0,85,-99.99,,,-99.99,,2013-02-24 14:13:00,
2013-02-24 07:24:00,10.0,6.0,29.84,NW,315,0.0,-999.0,85,-99.99,,,-99.99,,2013-02-24 14:24:00,
2013-02-24 07:33:00,10.0,6.0,29.85,NW,315,0.0,-999.0,84,-99.99,,,-99.99,,2013-02-24 14:33:00,
2013-02-24 07:44:00,10.0,6.0,29.85,NW,315,0.0,-999.0,84,-99.99,,,-99.99,,2013-02-24 14:44:00,
2013-02-24 07:54:00,10.0,6.0,29.86,NW,315,0.0,-999.0,84,-99.99,,,-99.99,,2013-02-24 14:54:00,
2013-02-24 08:02:00,10.0,6.0,29.88,SW,232,0.0,-999.0,83,-99.99,,,-99.99,,2013-02-24 15:02:00,
2013-02-24 08:13:00,10.0,6.0,29.88,SW,232,0.0,-999.0,83,-99.99,,,-99.99,,2013-02-24 15:13:00,
2013-02-24 08:23:00,10.0,6.0,29.88,SW,232,0.0,-999.0,83,-99.99,,,-99.99,,2013-02-24 15:23:00,
2013-02-24 08:32:00,10.0,6.0,29.89,SW,232,0.0,-999.0,82,-99.99,,,-99.99,,2013-02-24 15:32:00,
2013-02-24 08:42:00,10.0,6.0,29.89,SW,232,0.0,-999.0,82,-99.99,,,-99.99,,2013-02-24 15:42:00,
2013-02-24 08:53:00,10.0,6.0,29.90,SW,232,0.0,-999.0,82,-99.99,,,-99.99,,2013-02-24 15:53:00,
2013-02-24 09:01:00,9.0,4.0,29.91,SW,232,0.0,-999.0,80,-99.99,,,-99.99,,2013-02-24 16:01:00,
2013-02-24 09:11:00,9.0,4.0,29.91,SW,232,0.0,-999.0,80,-99.99,,,-99.99,,2013-02-24 16:11:00,
2013-02-24 09:21:00,9.0,4.0,29.91,SW,232,0.0,-999.0,80,-99.99,,,-99.99,,2013-02-24 16:21:00,
2013-02-24 09:32:00,9.0,5.0,29.91,SW,232,0.0,-999.0,82,-99.99,,,-99.99,,2013-02-24 16:32:00,
2013-02-24 09:41:00,9.0,5.0,29.91,SW,232,0.0,-999.0,82,-99.99,,,-99.99,,2013-02-24 16:41:00,
2013-02-24 09:52:00,10.0,6.0,29.92,SSW,202,0.0,-999.0,82,-99.99,,,-99.99,,2013-02-24 16:52:00,
2013-02-24 10:01:00,11.0,6.0,29.92,SSW,205,0.0,-999.0,81,-99.99,,,-99.99,,2013-02-24 17:01:00,
2013-02-24 10:11:00,11.0,6.0,29.92,SSW,205,0.0,-999.0,81,-99.99,,,-99.99,,2013-02-24 17:11:00,
2013-02-24 10:21:00,11.0,6.0,29.93,SSW,205,0.0,-999.0,79,-99.99,,,-99.99,,2013-02-24 17:21:00,
2013-02-24 10:32:00,12.0,6.0,29.93,SSW,192,1.0,-999.0,78,-99.99,,,-99.99,,2013-02-24 17:32:00,
2013-02-24 10:41:00,12.0,6.0,29.93,SSW,192,1.0,-999.0,78,-99.99,,,-99.99,,2013-02-24 17:41:00,
2013-02-24 10:52:00,13.0,7.0,29.94,East,88,1.0,-999.0,78,-99.99,,,-99.99,,2013-02-24 17:52:00,
2013-02-24 11:01:00,13.0,7.0,29.95,WSW,250,1.0,-999.0,76,-99.99,,,-99.99,,2013-02-24 18:01:00,
2013-02-24 11:11:00,13.0,7.0,29.95,WSW,250,1.0,-999.0,76,-99.99,,,-99.99,,2013-02-24 18:11:00,
2013-02-24 11:22:00,13.0,7.0,29.95,WSW,250,1.0,-999.0,76,-99.99,,,-99.99,,2013-02-24 18:22:00,
2013-02-24 11:32:00,13.0,7.0,29.96,SW,219,2.0,-999.0,76,-99.99,,,-99.99,,2013-02-24 18:32:00,
2013-02-24 11:42:00,13.0,7.0,29.96,SW,219,2.0,-999.0,76,-99.99,,,-99.99,,2013-02-24 18:42:00,
2013-02-24 11:52:00,13.0,7.0,29.97,South,182,1.0,-999.0,77,-99.99,,,-99.99,,2013-02-24 18:52:00,
2013-02-24 12:01:00,13.0,7.0,29.98,WSW,242,1.0,-999.0,77,-99.99,,,-99.99,,2013-02-24 19:01:00,
2013-02-24 12:11:00,13.0,7.0,29.98,WSW,242,1.0,-999.0,77,-99.99,,,-99.99,,2013-02-24 19:11:00,
2013-02-24 12:22:00,13.0,7.0,29.98,WSW,242,1.0,-999.0,77,-99.99,,,-99.99,,2013-02-24 19:22:00,
2013-02-24 12:32:00,13.0,6.0,30.00,WSW,247,2.0,-999.0,74,-99.99,,,-99.99,,2013-02-24 19:32:00,
2013-02-24 12:41:00,13.0,6.0,30.00,WSW,247,2.0,-999.0,74,-99.99,,,-99.99,,2013-02-24 19:41:00,
2013-02-24 12:52:00,13.0,6.0,30.01,WNW,298,1.0,-999.0,73,-99.99,,,-99.99,,2013-02-24 19:52:00,
2013-02-24 13:02:00,13.0,6.0,30.02,SSW,211,2.0,-999.0,72,-99.99,,,-99.99,,2013-02-24 20:02:00,
2013-02-24 13:11:00,13.0,6.0,30.02,SSW,211,2.0,-999.0,72,-99.99,,,-99.99,,2013-02-24 20:11:00,
2013-02-24 13:21:00,13.0,6.0,30.02,West,270,2.0,-999.0,73,-99.99,,,-99.99,,2013-02-24 20:21:00,
2013-02-24 13:31:00,13.0,5.0,30.03,NW,325,2.0,-999.0,71,-99.99,,,-99.99,,2013-02-24 20:31:00,
2013-02-24 13:41:00,13.0,5.0,30.03,NW,325,2.0,-999.0,71,-99.99,,,-99.99,,2013-02-24 20:41:00,
2013-02-24 13:52:00,13.0,5.0,30.04,West,275,1.0,-999.0,70,-99.99,,,-99.99,,2013-02-24 20:52:00,
2013-02-24 14:01:00,13.0,5.0,30.03,SW,231,1.0,-999.0,70,-99.99,,,-99.99,,2013-02-24 21:01:00,
2013-02-24 14:11:00,13.0,5.0,30.03,SW,231,1.0,-999.0,70,-99.99,,,-99.99,,2013-02-24 21:11:00,
2013-02-24 14:21:00,13.0,5.0,30.03,SW,231,1.0,-999.0,70,-99.99,,,-99.99,,2013-02-24 21:21:00,
2013-02-24 14:32:00,15.0,7.0,30.06,WNW,300,1.0,-999.0,69,-99.99,,,-99.99,,2013-02-24 21:32:00,
2013-02-24 14:42:00,15.0,7.0,30.06,WNW,300,1.0,-999.0,69,-99.99,,,-99.99,,2013-02-24 21:42:00,
2013-02-24 14:52:00,14.0,5.0,30.08,SSW,195,2.0,-999.0,66,-99.99,,,-99.99,,2013-02-24 21:52:00,
2013-02-24 15:01:00,13.0,3.0,30.08,West,280,2.0,-999.0,64,-99.99,,,-99.99,,2013-02-24 22:01:00,
2013-02-24 15:11:00,13.0,3.0,30.08,West,280,2.0,-999.0,64,-99.99,,,-99.99,,2013-02-24 22:11:00,
2013-02-24 15:21:00,13.0,3.0,30.08,West,280,2.0,-999.0,64,-99.99,,,-99.99,,2013-02-24 22:21:00,
2013-02-24 15:31:00,12.0,4.0,30.09,West,280,0.0,-999.0,69,-99.99,,,-99.99,,2013-02-24 22:31:00,
2013-02-24 15:41:00,12.0,4.0,30.09,West,280,0.0,-999.0,69,-99.99,,,-99.99,,2013-02-24 22:41:00,
2013-02-24 15:52:00,12.0,4.0,30.11,South,183,1.0,-999.0,69,-99.99,,,-99.99,,2013-02-24 22:52:00,
2013-02-24 16:02:00,12.0,4.0,30.13,WNW,300,1.0,-999.0,68,-99.99,,,-99.99,,2013-02-24 23:02:00,
2013-02-24 16:11:00,12.0,4.0,30.13,WNW,300,1.0,-999.0,68,-99.99,,,-99.99,,2013-02-24 23:11:00,
2013-02-24 16:21:00,12.0,4.0,30.13,WNW,300,1.0,-999.0,68,-99.99,,,-99.99,,2013-02-24 23:21:00,
2013-02-24 16:31:00,11.0,3.0,30.16,North,11,1.0,-999.0,71,-99.99,,,-99.99,,2013-02-24 23:31:00,
2013-02-24 16:41:00,11.0,3.0,30.16,North,11,1.0,-999.0,71,-99.99,,,-99.99,,2013-02-24 23:41:00,
2013-02-24 16:52:00,10.0,2.0,30.17,NW,317,1.0,-999.0,70,-99.99,,,-99.99,,2013-02-24 23:52:00,
2013-02-24 17:01:00,10.0,2.0,30.18,WSW,240,1.0,-999.0,70,-99.99,,,-99.99,,2013-02-25 00:01:00,
2013-02-24 17:11:00,10.0,2.0,30.18,WSW,240,1.0,-999.0,70,-99.99,,,-99.99,,2013-02-25 00:11:00,
2013-02-24 17:21:00,10.0,2.0,30.18,WSW,240,1.0,-999.0,70,-99.99,,,-99.99,,2013-02-25 00:21:00,
2013-02-24 17:31:00,9.0,2.0,30.22,WSW,246,0.0,-999.0,72,-99.99,,,-99.99,,2013-02-25 00:31:00,
2013-02-24 17:42:00,9.0,2.0,30.22,WSW,246,0.0,-999.0,72,-99.99,,,-99.99,,2013-02-25 00:42:00,
2013-02-24 17:52:00,9.0,2.0,30.23,WSW,246,0.0,-999.0,71,-99.99,,,-99.99,,2013-02-25 00:52:00,
2013-02-24 18:01:00,8.0,1.0,30.24,WSW,246,0.0,-999.0,72,-99.99,,,-99.99,,2013-02-25 01:01:00,
2013-02-24 18:11:00,8.0,1.0,30.24,WSW,246,0.0,-999.0,72,-99.99,,,-99.99,,2013-02-25 01:11:00,
2013-02-24 18:21:00,8.0,1.0,30.24,WSW,246,0.0,-999.0,72,-99.99,,,-99.99,,2013-02-25 01:21:00,
2013-02-24 18:31:00,5.0,-2.0,30.27,WSW,246,0.0,-999.0,72,-99.99,,,-99.99,,2013-02-25 01:31:00,
2013-02-24 18:42:00,5.0,-2.0,30.27,WSW,246,0.0,-999.0,72,-99.99,,,-99.99,,2013-02-25 01:42:00,
2013-02-24 18:52:00,5.0,-2.0,30.27,WSW,246,0.0,-999.0,72,-99.99,,,-99.99,,2013-02-25 01:52:00,
2013-02-24 19:01:00,2.0,-4.0,30.29,WSW,246,0.0,-999.0,74,-99.99,,,-99.99,,2013-02-25 02:01:00,
2013-02-24 19:21:00,1.0,-5.0,30.30,WSW,246,0.0,-999.0,75,-99.99,,,-99.99,,2013-02-25 02:21:00,
2013-02-24 19:32:00,0.0,-5.0,30.30,WSW,246,0.0,-999.0,78,-99.99,,,-99.99,,2013-02-25 02:32:00,
2013-02-24 19:41:00,0.0,-5.0,30.30,WSW,246,0.0,-999.0,78,-99.99,,,-99.99,,2013-02-25 02:41:00,
2013-02-24 19:52:00,1.0,-4.0,30.32,WSW,246,0.0,-999.0,80,-99.99,,,-99.99,,2013-02-25 02:52:00,
2013-02-24 20:01:00,1.0,-4.0,30.32,WSW,246,0.0,-999.0,80,-99.99,,,-99.99,,2013-02-25 03:01:00,
2013-02-24 20:11:00,1.0,-4.0,30.32,WSW,246,0.0,-999.0,80,-99.99,,,-99.99,,2013-02-25 03:11:00,
2013-02-24 20:21:00,2.0,-2.0,30.33,WSW,246,0.0,-999.0,81,-99.99,,,-99.99,,2013-02-25 03:21:00,
2013-02-24 20:31:00,4.0,-1.0,30.34,SW,227,0.0,-999.0,81,-99.99,,,-99.99,,2013-02-25 03:31:00,
2013-02-24 20:42:00,4.0,-1.0,30.34,SW,227,0.0,-999.0,81,-99.99,,,-99.99,,2013-02-25 03:42:00,
2013-02-24 20:52:00,5.0,0.0,30.35,NNW,327,1.0,-999.0,79,-99.99,,,-99.99,,2013-02-25 03:52:00,
2013-02-24 21:01:00,5.0,0.0,30.35,WSW,247,0.0,-999.0,78,-99.99,,,-99.99,,2013-02-25 04:01:00,
2013-02-24 21:11:00,5.0,0.0,30.35,WSW,247,0.0,-999.0,78,-99.99,,,-99.99,,2013-02-25 04:11:00,
2013-02-24 21:21:00,5.0,-1.0,30.36,West,278,1.0,-999.0,77,-99.99,,,-99.99,,2013-02-25 04:21:00,
2013-02-24 21:31:00,5.0,-1.0,30.36,West,278,0.0,-999.0,76,-99.99,,,-99.99,,2013-02-25 04:31:00,
2013-02-24 21:41:00,5.0,-1.0,30.36,West,278,0.0,-999.0,76,-99.99,,,-99.99,,2013-02-25 04:41:00,
2013-02-24 21:52:00,5.0,-1.0,30.36,SW,223,1.0,-999.0,77,-99.99,,,-99.99,,2013-02-25 04:52:00,
2013-02-24 22:01:00,5.0,0.0,30.36,SW,224,0.0,-999.0,78,-99.99,,,-99.99,,2013-02-25 05:01:00,
2013-02-24 22:11:00,5.0,0.0,30.36,SW,224,0.0,-999.0,78,-99.99,,,-99.99,,2013-02-25 05:11:00,
2013-02-24 22:22:00,5.0,0.0,30.37,South,175,0.0,-999.0,78,-99.99,,,-99.99,,2013-02-25 05:22:00,
2013-02-24 22:31:00,4.0,-2.0,30.37,SSW,195,0.0,-999.0,77,-99.99,,,-99.99,,2013-02-25 05:31:00,
2013-02-24 22:42:00,4.0,-2.0,30.37,SSW,195,0.0,-999.0,77,-99.99,,,-99.99,,2013-02-25 05:42:00,
2013-02-24 22:52:00,4.0,-1.0,30.36,East,85,0.0,-999.0,78,-99.99,,,-99.99,,2013-02-25 05:52:00,
2013-02-24 23:02:00,4.0,-1.0,30.36,East,85,1.0,-999.0,78,-99.99,,,-99.99,,2013-02-25 06:02:00,
2013-02-24 23:11:00,4.0,-1.0,30.36,East,85,1.0,-999.0,78,-99.99,,,-99.99,,2013-02-25 06:11:00,
2013-02-24 23:21:00,3.0,-3.0,30.35,East,85,1.0,-999.0,77,-99.99,,,-99.99,,2013-02-25 06:21:00,
2013-02-24 23:31:00,2.0,-4.0,30.36,East,85,0.0,-999.0,76,-99.99,,,-99.99,,2013-02-25 06:31:00,
2013-02-24 23:41:00,2.0,-4.0,30.36,East,85,0.0,-999.0,76,-99.99,,,-99.99,,2013-02-25 06:41:00,
2013-02-24 23:52:00,3.0,-1.0,30.37,SSW,211,1.0,-999.0,82,-99.99,,,-99.99,,2013-02-25 06:52:00,